This demonstration page uses our WeatherBlox Daily Observations layout. Learn more.

Left ArrowRight Arrow

38.89511, -77.03637

Hourly Observations for March 19, 2017

Temp ( °F °C ) Dew Point ( °F °C ) Humidity (%) Winds ( mph kmh ) Pressure ( in mb ) Visibility ( mi km ) Precip ( " mm )
12:31 am 00:31 Cloudy with Light Rain 43 6.1 41 5 93 93 NNE 15 24 30.09 1019 7 11 0.02 0.51
12:52 am 00:52 Cloudy with Light Rain 43 6.1 40 4.4 89 89 NNE 14 22 30.07 1018 9 14 0.04 1.02
1:52 am 01:52 Cloudy with Light Rain 42 5.6 39 3.9 89 89 NNE 14 22 30.07 1018 10 16 0.07 1.78
2:36 am 02:36 Cloudy with Light Rain 39 4 37 3 93 93 N 16 26 30.09 1019 8 13 N/A
2:52 am 02:52 Cloudy with Light Rain 40 4.4 37 2.8 89 89 N 15 24 30.08 1019 10 16 0.06 1.52
3:52 am 03:52 Cloudy with Light Rain 38 3.3 36 2.2 93 93 N 12 19 30.09 1019 10 16 0.04 1.02
4:12 am 04:12 Cloudy with Light Rain 37 3 36 2 93 93 N 13 20 30.09 1019 10 16 N/A
4:44 am 04:44 Cloudy with Light Rain/Snow 37 3 36 2 93 93 N 12 19 30.12 1020 10 16 N/A
4:52 am 04:52 Cloudy with Light Rain/Snow 37 2.8 35 1.7 93 93 N 13 20 30.11 1020 10 16 0.01 0.25
5:04 am 05:04 Cloudy with Light Rain/Snow 37 3 36 2 93 93 N 13 20 30.12 1020 10 16 N/A
5:52 am 05:52 Cloudy with Light Wintry Mix 36 2.2 34 1.1 93 93 N 13 20 30.14 1021 8 13 0.03 0.76
6:52 am 06:52 Cloudy with Light Snow 36 2.2 34 1.1 93 93 N 16 26 30.17 1022 7 11 0.03 0.76
7:52 am 07:52 Cloudy with Light Rain 36 2.2 34 1.1 93 93 N 14 22 30.19 1022 6 10 0.02 0.51
8:05 am 08:05 Cloudy with Light Rain 37 2.8 34 1.1 89 89 N 14 22 30.21 1023 7 11 N/A
8:19 am 08:19 Cloudy with Light Rain 37 2.8 34 1.1 89 89 N 14 22 30.21 1023 8 13 0.01 0.25
8:52 am 08:52 Cloudy with Light Rain 37 2.8 35 1.7 93 93 N 14 22 30.21 1023 9 14 0.01 0.25
9:52 am 09:52 Cloudy 39 3.9 35 1.7 86 86 NNW 16 26 30.23 1024 10 16 N/A
10:52 am 10:52 Cloudy 40 4.4 35 1.7 83 83 NNW 16 26 30.24 1024 10 16 N/A
11:22 am 11:22 Cloudy 41 5 36 2 81 81 NNW 13 20 30.24 1024 10 16 N/A
11:52 am 11:52 Cloudy 43 6.1 36 2.2 76 76 N 13 20 30.25 1024 10 16 N/A
12:52 pm 12:52 Mostly Cloudy 46 7.8 35 1.7 66 66 N 14 22 30.24 1024 10 16 N/A
1:52 pm 13:52 Mostly Cloudy 49 9.4 36 2.2 61 61 NNW 15 24 30.23 1024 10 16 N/A
2:52 pm 14:52 Mostly Cloudy 51 10.6 35 1.7 54 54 N 20 31 30.21 1023 10 16 N/A
3:52 pm 15:52 Mostly Cloudy 52 11.1 34 1.1 50 50 NNW 20 31 30.19 1022 10 16 N/A
4:52 pm 16:52 Mostly Cloudy 54 12.2 35 1.7 49 49 NNW 10 17 30.19 1022 10 16 N/A
5:52 pm 17:52 Mostly Cloudy 51 10.6 34 1.1 52 52 NW 18 30 30.20 1023 10 16 N/A
6:52 pm 18:52 Mostly Cloudy 50 10 32 undefined 50 50 NNW 16 26 30.21 1023 10 16 N/A
7:52 pm 19:52 Cloudy 48 8.9 34 1.1 58 58 N 18 30 30.23 1024 10 16 N/A
8:52 pm 20:52 Mostly Cloudy 45 7.2 33 0.6 63 63 N 12 19 30.25 1024 10 16 N/A
9:52 pm 21:52 Partly Cloudy 45 7.2 31 -0.6 58 58 N 15 24 30.26 1025 10 16 N/A
10:52 pm 22:52 Mostly Cloudy 45 7.2 31 -0.6 58 58 NW 12 19 30.26 1025 10 16 N/A
11:52 pm 23:52 Partly Cloudy 44 6.7 31 -0.6 60 60 NNW 12 19 30.25 1024 10 16 N/A

Powered by AerisWeather